Location: B?jaj?g
(11.7167°N, 92.6667°E)
Time: 04:55:58
(UTC+00:00)

Spot 2 - Pass Details

Date: 18 September 2020
Orbit: 569 x 775 km, 98.7° (Epoch: 20 October)

Event Time Altitude Azimuth Distance (km) Brightness Sun altitude
Rises 22:57:17 0° 11° (N) 2,764 7.6 -10.9°
Reaches altitude 10° 22:59:25 10° 11° (N) 1,863 6.7 -10.4°
Maximum altitude 23:03:25 85° 286° (WNW) 575 3.8 -9.4°
Drops below altitude 10° 23:07:28 10° 194° (SSW) 1,887 6.4 -8.4°
Sets 23:09:39 0° 194° (SSW) 2,804 7.3 -7.9°
